Location: Guferjoch
(46.7462°N, 8.4506°E)
Time: 23:36:08
(UTC+00:00)

Cosmos 1782 Rocket - Pass Details

Date: 14 July 2020
Orbit: 606 x 633 km, 82.5° (Epoch: 14 August)

Event Time Altitude Azimuth Distance (km) Brightness Sun altitude
Exits shadow 02:53:01 - 185° (S) 2,669 6.4 -8.0°
Reaches altitude 10° 02:54:39 10° 185° (S) 2,002 5.7 -7.8°
Maximum altitude 02:59:06 83° 98° (E) 638 3.7 -7.2°
Drops below altitude 10° 03:03:33 10° 11° (N) 2,003 7.1 -6.7°
Sets 03:05:46 0° 10° (N) 2,909 7.9 -6.4°
